Location: Caltech
(34.1382°N, 118.1253°W)
Time: 15:04:55
(UTC-07:00)

ERBS - Visible Passes

Search period start: 17 October 2017 00:00
Search period end: 27 October 2017 00:00
Orbit: 425 x 440 km, 57.0° (Epoch: 17 October)

Date Brightness Start Highest point End Pass type
(mag) Time Alt. Az. Time Alt. Az. Time Alt. Az.
18 Oct 4.3 06:21:46 10° NNW 06:24:48 28° NE 06:27:50 10° ESE visible
19 Oct 5.0 05:39:31 10° N 05:41:56 17° NE 05:44:20 10° E visible
20 Oct 5.3 04:57:59 10° NNE 04:58:59 11° NE 05:00:08 10° ENE visible
20 Oct 2.4 06:32:30 10° NW 06:35:55 65° SW 06:39:20 10° SSE visible
21 Oct 2.7 05:50:43 18° NNW 05:53:10 65° NE 05:56:36 10° SE visible
22 Oct 3.7 05:10:17 35° NE 05:10:21 35° NE 05:13:33 10° ESE visible
23 Oct 5.8 04:29:57 11° E 04:29:57 11° E 04:30:11 10° E visible
23 Oct 3.5 06:03:16 23° W 06:04:03 26° WSW 06:06:58 10° S visible
24 Oct 4.0 05:23:03 25° S 05:23:03 25° S 05:24:41 10° SSE visible
24 Oct 5.5 20:24:51 10° SW 20:24:58 11° SW 20:24:58 11° SW visible
25 Oct 2.9 19:42:04 10° SSW 19:44:39 47° S 19:44:39 47° S visible
26 Oct 3.1 18:59:36 10° S 19:02:42 33° SE 19:04:10 23° ENE visible
26 Oct 5.8 20:37:07 10° W 20:37:27 11° WNW 20:37:27 11° WNW visible
